Wind_Speed
37 78 74 71 62 53 61 67 60 58 61 72 81 81 77 76 72 66 62 61 59 57 52 52 48 47 44 43 38 38 38 37 35 26 26 27 26 27 27 27 28 27 26
38 84 81 71 62 61 59 63 52 55 59 47 60 79 78 73 69 66 66 64 62 61 56 53 48 46 43 43 42 39 36 35 32 27 27 26 27 29 28 28 28 27 25
36 78 91 79 64 66 69 61 59 65 68 55 51 53 56 64 64 66 62 64 65 60 58 54 51 45 44 45 43 39 35 34 30 28 30 32 33 32 29 27 25 24 24
41 57 79 88 78 75 77 68 68 68 67 54 54 52 50 58 60 63 63 63 62 64 61 55 51 47 47 44 40 38 35 34 31 35 34 37 36 34 31 30 27 26 23
45 73 74 74 79 72 77 62 62 70 68 70 60 56 54 60 60 61 62 62 61 60 59 56 51 50 49 51 47 43 37 39 40 40 42 45 37 35 37 37 31 34 34
60 74 73 77 83 80 70 66 73 74 72 69 65 63 61 59 58 62 63 61 58 55 56 56 53 51 52 52 51 44 43 43 45 47 47 48 42 39 39 39 39 39 40
46 79 87 82 81 79 81 75 79 76 75 69 68 66 75 72 65 63 62 63 60 55 58 60 57 55 53 52 48 50 51 47 48 50 51 47 44 43 43 40 42 43 45
46 57 87 87 88 95 93 84 84 82 83 76 75 74 75 73 71 70 68 64 62 65 65 64 60 56 56 49 46 48 47 50 49 49 47 47 48 43 42 48 53 52 51
53 52 80 90 90 97 99 98 93 91 80 80 82 82 81 78 71 60 65 66 67 68 67 63 60 60 60 57 52 53 51 50 49 48 47 48 51 47 52 53 50 54 57
59 60 59 71 103 97 91 102 98 94 88 89 87 88 88 81 77 64 65 63 64 62 58 55 61 62 61 59 55 54 51 51 54 53 51 54 55 54 56 58 58 61 64
59 66 66 65 62 106 97 107 102 99 98 95 95 94 91 87 73 70 64 64 62 60 56 59 60 61 62 62 61 60 57 55 57 59 57 58 54 58 60 60 63 64 69
69 65 71 70 70 71 94 117 103 103 107 105 103 105 106 95 83 79 69 70 64 63 61 65 66 66 67 66 63 64 63 63 65 64 62 57 57 60 62 65 66 69 71
77 73 71 76 76 75 79 85 89 103 123 122 113 104 112 100 99 89 82 78 72 69 72 67 66 69 70 66 67 69 70 70 69 65 63 64 64 64 65 66 67 72 73
76 78 78 77 78 78 72 75 78 84 106 129 126 124 117 110 100 103 96 91 85 77 74 75 70 69 70 72 74 77 73 76 70 71 74 74 72 74 75 74 74 78 73
70 79 84 82 79 76 74 69 70 70 76 107 133 125 125 117 115 103 103 97 92 88 89 83 80 75 78 76 76 75 79 77 76 77 80 79 75 77 75 82 79 81 80
77 75 84 87 83 77 72 67 65 65 54 67 137 133 121 121 125 106 109 107 103 101 97 94 89 85 83 84 82 79 81 82 83 83 81 84 85 85 83 85 86 90 87
77 78 77 89 87 81 77 70 65 60 57 49 103 141 133 122 117 114 118 117 112 106 106 101 96 93 94 85 87 90 89 85 85 85 89 89 85 87 88 93 95 91 86
78 81 79 80 89 86 81 73 67 61 57 50 60 124 148 134 136 129 122 116 114 110 108 109 107 107 101 96 93 92 89 89 90 91 90 96 95 97 98 96 91 95 87
80 82 83 81 82 84 82 77 69 62 59 57 51 79 143 141 124 125 129 122 119 116 115 104 106 98 98 100 99 97 95 99 96 94 89 96 99 95 96 98 92 99 94
80 83 83 82 80 80 79 80 73 68 62 59 56 54 102 141 138 133 129 119 124 128 124 126 114 111 98 93 94 90 86 91 92 104 99 90 98 91 97 108 100 98 100
77 80 82 81 77 79 77 78 79 73 68 63 60 55 62 103 149 145 137 128 130 125 117 112 114 112 116 106 111 107 105 105 107 113 112 112 109 112 109 111 107 109 114
76 78 80 80 77 78 78 76 81 79 74 70 66 61 56 69 104 138 142 139 136 133 128 120 125 124 122 122 120 120 121 112 116 116 118 119 120 123 120 121 128 125 131
73 74 76 77 76 77 79 77 75 82 79 77 73 70 65 60 72 103 129 137 133 127 121 124 123 123 124 127 123 118 116 121 120 121 123 122 122 124 128 128 126 124 124
72 73 76 77 76 77 80 78 79 81 85 82 79 76 73 70 69 74 92 110 114 115 117 120 117 121 117 108 110 108 114 113 113 112 113 112 112 115 122 121 123 116 109
73 71 73 76 78 78 81 82 80 80 88 87 86 84 81 79 77 75 74 77 84 93 98 97 91 85 84 85 85 85 83 82 80 82 85 85 85 90 87 87 93 100 106
70 70 71 73 75 77 81 83 85 85 85 91 92 91 89 88 87 84 82 81 81 81 79 80 82 83 80 77 77 78 77 78 77 77 78 78 76 77 73 72 80 87 86
Wind_Direction
200 195 192 186 177 189 191 198 205 213 219 222 225 228 231 232 233 237 239 243 242 243 244 248 253 257 262 261 262 269 273 281 277 263 268 271 271 273 275 281 286 287 292
190 199 193 194 184 188 192 195 207 198 205 217 228 228 230 232 234 238 241 244 244 244 244 248 250 255 253 257 261 266 271 274 266 258 267 270 270 274 278 286 292 288 285
211 201 198 193 188 194 193 200 206 199 211 214 223 229 231 234 236 238 239 240 240 240 242 244 245 250 252 253 256 262 268 268 254 268 268 275 274 277 281 285 290 292 283
198 202 203 203 204 200 207 208 208 211 206 215 224 217 230 228 228 230 235 237 239 238 237 242 243 248 249 249 252 259 263 259 250 259 263 265 279 281 281 283 288 291 291
190 199 196 198 202 200 205 209 212 212 213 215 221 229 233 231 235 238 236 238 234 235 238 238 240 246 245 249 251 256 262 261 253 262 259 266 279 277 278 282 282 288 289
195 193 197 205 207 208 213 217 217 216 217 222 224 228 228 233 237 235 234 233 233 234 234 236 239 243 243 247 251 256 260 262 260 262 262 276 277 277 278 275 279 287 290
205 205 204 202 207 210 210 213 216 220 218 222 221 226 224 227 232 231 234 236 236 233 235 238 238 241 243 249 254 257 261 261 260 263 269 274 275 277 276 275 279 287 295
208 214 210 213 213 215 212 211 216 220 223 223 222 225 230 222 230 229 228 233 233 234 237 240 242 243 244 251 255 258 262 264 261 260 265 269 271 277 278 293 294 289 298
212 211 211 215 218 218 218 216 217 219 220 220 224 229 231 228 226 233 232 232 233 234 235 238 240 242 244 251 250 255 259 261 256 257 265 271 276 270 281 288 293 291 290
219 213 211 215 217 223 223 222 225 219 220 222 225 228 227 221 227 233 229 228 229 230 231 237 238 241 243 246 251 255 258 257 257 260 267 274 276 272 284 288 292 293 290
223 219 215 215 216 219 224 221 220 219 219 222 224 224 226 229 232 228 225 224 230 228 229 236 239 242 245 246 254 255 254 258 258 264 269 272 271 278 283 287 289 293 292
224 221 219 218 218 219 221 218 222 225 224 220 222 224 226 229 227 224 225 228 226 227 231 240 250 247 245 249 253 252 253 258 260 264 269 269 274 277 282 284 290 292 294
224 223 221 221 221 221 221 222 225 231 230 225 221 218 226 226 228 226 226 231 228 231 240 245 248 248 246 247 249 252 256 258 259 262 262 266 269 272 278 284 287 293 294
225 223 223 224 226 226 227 228 229 233 232 225 221 222 225 228 228 232 233 233 234 238 241 244 247 249 249 251 253 255 257 257 257 260 264 265 271 272 275 282 288 291 288
230 227 225 224 226 228 231 232 235 239 241 231 219 221 223 224 226 231 232 231 236 239 241 243 247 248 248 249 253 258 258 261 264 266 265 268 268 273 272 279 283 287 287
235 232 227 226 228 228 232 236 237 241 249 240 217 220 223 224 227 230 233 233 235 239 243 242 246 249 253 252 254 256 259 261 265 266 266 273 271 271 276 278 283 286 288
232 233 229 228 228 229 231 236 238 243 246 250 224 218 220 220 225 227 233 236 238 239 241 242 245 246 254 253 255 257 261 263 266 265 267 266 267 273 277 281 284 286 285
233 233 230 230 229 231 231 233 237 243 249 250 239 223 220 224 226 230 232 235 236 237 241 247 248 249 253 257 258 256 259 261 263 266 263 268 270 277 277 281 278 281 281
231 234 233 231 231 231 232 230 233 236 246 253 253 232 222 220 222 228 231 233 237 239 240 246 248 251 255 258 259 261 262 260 261 268 269 271 269 273 274 275 277 281 281
229 231 233 232 230 231 231 230 230 233 238 244 251 244 225 219 222 227 232 235 236 239 242 245 247 249 250 251 257 261 261 260 261 261 268 266 269 273 271 278 276 272 278
230 231 233 234 230 230 232 230 228 230 233 238 243 247 237 229 224 227 232 234 238 238 240 242 246 247 254 251 250 253 255 257 260 262 259 264 266 271 271 269 275 274 275
228 229 231 232 231 230 230 230 227 226 228 233 235 240 241 234 230 227 230 234 237 240 243 246 249 251 252 255 255 258 259 259 259 261 262 264 269 270 273 272 272 275 276
227 228 229 230 231 230 226 228 228 227 222 227 230 233 235 236 233 232 231 235 238 240 244 246 248 251 253 256 256 256 258 260 260 263 263 266 270 271 271 271 275 275 276
225 225 226 228 229 230 228 229 230 228 226 224 226 229 231 230 232 232 234 233 235 238 242 245 246 250 254 255 257 258 258 262 261 264 265 267 268 266 266 267 270 272 272
224 224 226 227 227 228 227 228 231 232 229 225 224 227 229 230 231 231 232 233 234 236 240 243 243 244 246 247 250 252 252 255 257 258 262 264 263 264 264 268 268 266 268
226 225 226 226 227 228 228 228 230 233 231 229 227 227 228 231 232 233 233 234 234 235 237 239 240 241 243 246 248 249 251 253 256 257 259 262 264 266 269 272 271 268 271
Height
10572 10586 10589 10594 10608 10618 10627 10636 10649 10655 10662 10672 10685 10695 10703 10709 10717 10725 10732 10739 10744 10748 10754 10758 10762 10767 10768 10768 10769 10772 10772 10774 10774 10773 10773 10774 10773 10774 10774 10774 10774 10774 10773
10572 10581 10588 10592 10600 10610 10618 10631 10639 10643 10652 10663 10671 10680 10689 10698 10707 10715 10723 10729 10733 10739 10744 10749 10754 10758 10760 10760 10762 10764 10765 10766 10767 10767 10767 10767 10767 10768 10767 10767 10767 10767 10766
10568 10576 10585 10590 10598 10609 10617 10627 10635 10640 10645 10654 10663 10674 10685 10693 10702 10707 10711 10715 10721 10728 10734 10739 10744 10748 10750 10752 10754 10756 10757 10759 10761 10761 10761 10761 10760 10761 10761 10761 10760 10760 10759
10566 10576 10588 10599 10600 10605 10614 10623 10628 10632 10641 10648 10656 10666 10673 10679 10681 10687 10696 10704 10710 10717 10723 10730 10734 10738 10741 10742 10745 10747 10749 10751 10753 10753 10754 10753 10753 10753 10754 10754 10755 10753 10752
10563 10578 10586 10596 10601 10606 10613 10617 10622 10630 10636 10640 10648 10655 10662 10668 10674 10682 10687 10694 10701 10707 10713 10719 10723 10726 10729 10733 10735 10739 10741 10743 10744 10745 10745 10745 10745 10746 10746 10746 10747 10747 10746
10561 10566 10579 10589 10597 10603 10609 10614 10618 10624 10629 10634 10639 10644 10650 10656 10665 10671 10676 10683 10689 10696 10702 10708 10711 10715 10718 10721 10726 10731 10732 10733 10735 10736 10736 10737 10737 10737 10737 10737 10738 10738 10737
10552 10560 10566 10576 10583 10592 10598 10604 10607 10611 10620 10623 10631 10633 10635 10644 10652 10657 10664 10672 10680 10686 10690 10695 10698 10702 10708 10714 10717 10720 10722 10723 10724 10726 10727 10728 10729 10728 10728 10729 10729 10728 10729
10539 10543 10550 10559 10566 10569 10578 10587 10593 10599 10606 10611 10617 10619 10626 10633 10639 10646 10652 10660 10668 10673 10679 10685 10689 10695 10700 10704 10706 10708 10710 10712 10714 10715 10716 10718 10718 10719 10720 10720 10718 10718 10717
10524 10528 10533 10542 10549 10554 10562 10571 10577 10586 10592 10601 10601 10604 10612 10621 10630 10636 10642 10648 10655 10660 10666 10672 10677 10683 10688 10692 10694 10696 10699 10701 10702 10704 10705 10707 10707 10708 10709 10709 10709 10708 10707
10509 10513 10517 10523 10531 10539 10546 10556 10565 10572 10577 10582 10589 10593 10598 10606 10616 10623 10631 10637 10643 10648 10654 10659 10665 10671 10676 10680 10682 10685 10687 10689 10690 10693 10694 10694 10695 10695 10697 10697 10696 10695 10695
10487 10497 10502 10507 10511 10522 10526 10535 10542 10553 10561 10568 10575 10582 10582 10592 10600 10611 10618 10623 10628 10635 10641 10647 10652 10658 10663 10667 10670 10673 10675 10677 10678 10680 10681 10682 10683 10683 10684 10683 10683 10680 10678
10463 10475 10483 10489 10494 10500 10508 10513 10522 10532 10542 10546 10556 10565 10569 10575 10586 10594 10601 10608 10615 10622 10627 10633 10638 10645 10649 10654 10656 10658 10661 10664 10666 10667 10669 10670 10671 10671 10671 10670 10669 10668 10665
10442 10451 10461 10469 10476 10483 10490 10498 10506 10510 10514 10522 10535 10545 10553 10560 10567 10574 10583 10592 10599 10607 10613 10619 10625 10630 10635 10638 10641 10644 10646 10649 10652 10654 10655 10657 10658 10658 10657 10656 10657 10655 10651
10422 10431 10436 10445 10453 10461 10468 10475 10480 10483 10486 10493 10508 10519 10532 10542 10548 10555 10566 10575 10583 10591 10597 10604 10610 10615 10620 10624 10625 10628 10631 10633 10636 10639 10640 10643 10643 10642 10643 10643 10642 10640 10635
10396 10405 10410 10419 10428 10437 10445 10452 10456 10459 10460 10460 10478 10494 10505 10518 10529 10536 10547 10556 10566 10574 10581 10588 10594 10598 10603 10609 10610 10612 10612 10616 10619 10624 10625 10627 10628 10628 10630 10627 10626 10623 10619
10371 10380 10389 10396 10404 10415 10424 10431 10435 10437 10435 10432 10451 10468 10481 10497 10509 10518 10527 10537 10547 10556 10562 10571 10577 10583 10587 10592 10593 10596 10593 10597 10603 10606 10608 10611 10612 10610 10611 10609 10609 10604 10600
10348 10358 10367 10375 10384 10393 10402 10409 10414 10417 10419 10418 10424 10444 10458 10474 10488 10499 10505 10518 10528 10537 10544 10552 10556 10564 10570 10574 10575 10575 10579 10582 10586 10588 10590 10591 10591 10591 10593 10590 10589 10585 10581
10327 10337 10345 10352 10362 10369 10378 10388 10395 10399 10401 10404 10407 10418 10435 10452 10466 10478 10488 10500 10508 10519 10527 10531 10537 10545 10551 10554 10555 10557 10561 10562 10568 10569 10570 10570 10570 10572 10572 10570 10569 10567 10565
10303 10311 10323 10332 10340 10349 10357 10369 10377 10383 10387 10389 10391 10394 10409 10429 10448 10458 10470 10479 10489 10499 10507 10511 10516 10524 10529 10532 10532 10537 10545 10545 10548 10549 10550 10550 10548 10547 10550 10551 10547 10546 10545
10281 10288 10299 10312 10322 10331 10340 10350 10360 10368 10374 10378 10381 10383 10391 10408 10426 10436 10447 10459 10471 10480 10488 10496 10500 10505 10513 10513 10511 10515 10521 10523 10526 10527 10527 10526 10529 10523 10526 10529 10526 10526 10525
10262 10272 10282 10293 10306 10316 10323 10332 10341 10350 10358 10364 10368 10372 10376 10387 10402 10415 10426 10438 10450 10458 10468 10475 10481 10484 10488 10494 10495 10499 10501 10504 10505 10504 10505 10507 10509 10508 10508 10508 10503 10500 10498
10239 10251 10262 10274 10287 10298 10305 10312 10322 10331 10340 10348 10355 10360 10364 10370 10380 10396 10408 10417 10427 10435 10445 10453 10458 10464 10465 10468 10472 10476 10477 10480 10481 10479 10481 10482 10486 10485 10483 10485 10479 10478 10475
10222 10234 10245 10257 10268 10278 10287 10294 10303 10312 10321 10330 10338 10346 10352 10356 10363 10372 10385 10395 10404 10415 10425 10430 10435 10439 10444 10445 10447 10451 10452 10454 10459 10458 10457 10459 10459 10460 10457 10455 10449 10447 10449
10206 10216 10225 10237 10249 10258 10268 10276 10284 10292 10302 10311 10320 10327 10335 10340 10346 10353 10362 10373 10383 10393 10400 10405 10410 10416 10421 10423 10426 10426 10428 10431 10434 10433 10437 10436 10434 10433 10427 10429 10429 10427 10423
10187 10200 10209 10218 10229 10239 10249 10258 10265 10273 10282 10290 10299 10307 10316 10323 10329 10336 10343 10351 10360 10369 10377 10383 10389 10395 10399 10401 10401 10403 10406 10408 10410 10410 10409 10408 10406 10405 10406 10406 10404 10404 10400
10171 10184 10192 10202 10213 10222 10230 10238 10246 10254 10262 10270 10279 10288 10296 10303 10311 10320 10328 10335 10343 10351 10358 10364 10369 10374 10379 10381 10384 10387 10388 10388 10389 10389 10387 10387 10386 10385 10383 10381 10381 10381 10378